| time (UTC) | temp F | wind direction | speed MPH | gust MPH | rain 1hr in | rain 24hr in | rain mn in | humidity % | barometer mb |
| 20260902212212 | 64 | 23 | 3.0 | 5.0 | 0.00 | 0.00 | 0.00 | 75 | 1021.7 |
| 20260902211212 | 65 | 342 | 1.0 | 3.0 | 0.00 | 0.00 | 0.00 | 76 | 1021.7 |
| 20260902210212 | 65 | 360 | 0.0 | 0.0 | 0.00 | 0.00 | 0.00 | 75 | 1021.7 |
| 20260902205212 | 65 | 360 | 0.0 | 0.0 | 0.00 | 0.00 | 0.00 | 74 | 1021.7 |
| 20260902204212 | 65 | 5 | 1.0 | 2.0 | 0.00 | 0.00 | 0.00 | 74 | 1021.7 |
| 20260902203212 | 66 | 5 | 1.0 | 2.0 | 0.00 | 0.00 | 0.00 | 74 | 1021.6 |
| 20260902202212 | 66 | 18 | 0.0 | 0.0 | 0.00 | 0.00 | 0.00 | 73 | 1021.4 |
| 20260902201212 | 66 | 18 | 0.0 | 2.0 | 0.00 | 0.00 | 0.00 | 72 | 1021.2 |
| 20260902200213 | 66 | 62 | 2.0 | 5.0 | 0.00 | 0.00 | 0.00 | 73 | 1021.2 |
| 20260902195212 | 67 | 225 | 1.0 | 2.0 | 0.00 | 0.00 | 0.00 | 72 | 1021.1 |
| 20260902194212 | 67 | 225 | 0.0 | 1.0 | 0.00 | 0.00 | 0.00 | 71 | 1021.1 |
| 20260902193212 | 68 | 225 | 0.0 | 0.0 | 0.00 | 0.00 | 0.00 | 69 | 1021.0 |
| 20260902192212 | 69 | 225 | 0.0 | 0.0 | 0.00 | 0.00 | 0.00 | 68 | 1020.9 |
| 20260902191212 | 69 | 225 | 1.0 | 2.0 | 0.00 | 0.00 | 0.00 | 67 | 1020.9 |
| 20260902190212 | 70 | 302 | 0.0 | 0.0 | 0.00 | 0.00 | 0.00 | 64 | 1020.7 |
| 20260902185212 | 72 | 302 | 0.0 | 1.0 | 0.00 | 0.00 | 0.00 | 61 | 1020.6 |
| 20260902184212 | 73 | 302 | 0.0 | 2.0 | 0.00 | 0.00 | 0.00 | 58 | 1020.5 |
| 20260902183212 | 74 | 302 | 1.0 | 2.0 | 0.00 | 0.00 | 0.00 | 55 | 1020.4 |
| 20260902182212 | 75 | 309 | 2.0 | 3.0 | 0.00 | 0.00 | 0.00 | 53 | 1020.4 |
| 20260902181212 | 75 | 309 | 0.0 | 0.0 | 0.00 | 0.00 | 0.00 | 52 | 1020.3 |
| 20260902175212 | 77 | 286 | 1.0 | 3.0 | 0.00 | 0.00 | 0.00 | 47 | 1020.1 |
| 20260902174212 | 78 | 283 | 2.0 | 4.0 | 0.00 | 0.00 | 0.00 | 46 | 1020.0 |
| 20260902173212 | 78 | 285 | 2.0 | 4.0 | 0.00 | 0.00 | 0.00 | 45 | 1019.9 |
| 20260902172212 | 79 | 267 | 2.0 | 8.0 | 0.00 | 0.00 | 0.00 | 44 | 1019.8 |
| 20260902171212 | 79 | 273 | 4.0 | 8.0 | 0.00 | 0.00 | 0.00 | 43 | 1019.8 |
| 20260902170212 | 80 | 269 | 5.0 | 10.0 | 0.00 | 0.00 | 0.00 | 41 | 1019.6 |
| 20260902165212 | 80 | 298 | 4.0 | 10.0 | 0.00 | 0.00 | 0.00 | 41 | 1019.5 |
| 20260902164213 | 80 | 342 | 4.0 | 10.0 | 0.00 | 0.00 | 0.00 | 40 | 1019.4 |
| 20260902163212 | 80 | 300 | 4.0 | 12.0 | 0.00 | 0.00 | 0.00 | 39 | 1019.4 |
| 20260902162212 | 81 | 257 | 5.0 | 11.0 | 0.00 | 0.00 | 0.00 | 39 | 1019.4 |
| 20260902161212 | 81 | 269 | 3.0 | 12.0 | 0.00 | 0.00 | 0.00 | 38 | 1019.4 |
| 20260902160212 | 82 | 228 | 8.0 | 13.0 | 0.00 | 0.00 | 0.00 | 38 | 1019.5 |
| 20260902155212 | 82 | 265 | 10.0 | 17.0 | 0.00 | 0.00 | 0.00 | 39 | 1019.5 |
| 20260902154212 | 83 | 253 | 7.0 | 14.0 | 0.00 | 0.00 | 0.00 | 39 | 1019.5 |
| 20260902153212 | 83 | 263 | 8.0 | 14.0 | 0.00 | 0.00 | 0.00 | 39 | 1019.5 |
| 20260902152212 | 84 | 286 | 7.0 | 13.0 | 0.00 | 0.00 | 0.00 | 37 | 1019.4 |
| 20260902151212 | 84 | 257 | 8.0 | 18.0 | 0.00 | 0.00 | 0.00 | 36 | 1019.4 |
| 20260902150212 | 84 | 262 | 6.0 | 12.0 | 0.00 | 0.00 | 0.00 | 36 | 1019.2 |
| 20260902145213 | 84 | 260 | 8.0 | 16.0 | 0.00 | 0.00 | 0.00 | 34 | 1019.3 |
| 20260902144211 | 84 | 263 | 8.0 | 15.0 | 0.00 | 0.00 | 0.00 | 33 | 1019.3 |
| 20260902143213 | 83 | 238 | 4.0 | 8.0 | 0.00 | 0.00 | 0.00 | 34 | 1019.4 |
| 20260902142212 | 83 | 305 | 9.0 | 13.0 | 0.00 | 0.00 | 0.00 | 33 | 1019.2 |
| 20260902141211 | 83 | 222 | 5.0 | 10.0 | 0.00 | 0.00 | 0.00 | 39 | 1019.3 |
| 20260902140212 | 83 | 120 | 2.0 | 8.0 | 0.00 | 0.00 | 0.00 | 39 | 1019.3 |
| 20260902135211 | 84 | 135 | 2.0 | 10.0 | 0.00 | 0.00 | 0.00 | 39 | 1019.5 |
| 20260902134211 | 84 | 156 | 3.0 | 9.0 | 0.00 | 0.00 | 0.00 | 38 | 1019.5 |
| 20260902133212 | 85 | 242 | 5.0 | 12.0 | 0.00 | 0.00 | 0.00 | 40 | 1019.6 |
| 20260902132212 | 84 | 252 | 5.0 | 10.0 | 0.00 | 0.00 | 0.00 | 42 | 1019.6 |
| 20260902131212 | 84 | 161 | 5.0 | 10.0 | 0.00 | 0.00 | 0.00 | 40 | 1019.7 |
| 20260902130212 | 85 | 115 | 3.0 | 6.0 | 0.00 | 0.00 | 0.00 | 42 | 1019.8 |
| 20260902125212 | 84 | 196 | 4.0 | 7.0 | 0.00 | 0.00 | 0.00 | 44 | 1020.1 |
| 20260902124211 | 84 | 174 | 3.0 | 6.0 | 0.00 | 0.00 | 0.00 | 43 | 1020.3 |
| 20260902123211 | 84 | 279 | 2.0 | 7.0 | 0.00 | 0.00 | 0.00 | 42 | 1020.3 |
| 20260902122211 | 85 | 202 | 3.0 | 6.0 | 0.00 | 0.00 | 0.00 | 42 | 1020.3 |
| 20260902121211 | 85 | 229 | 4.0 | 9.0 | 0.00 | 0.00 | 0.00 | 42 | 1020.3 |
| 20260902120211 | 85 | 223 | 7.0 | 10.0 | 0.00 | 0.00 | 0.00 | 41 | 1020.3 |
| 20260902115212 | 85 | 176 | 3.0 | 8.0 | 0.00 | 0.00 | 0.00 | 41 | 1020.5 |
| 20260902114211 | 84 | 281 | 2.0 | 8.0 | 0.00 | 0.00 | 0.00 | 42 | 1020.5 |
| 20260902113211 | 83 | 189 | 4.0 | 8.0 | 0.00 | 0.00 | 0.00 | 43 | 1020.5 |
| 20260902112211 | 83 | 151 | 5.0 | 11.0 | 0.00 | 0.00 | 0.00 | 44 | 1020.7 |
| 20260902111211 | 82 | 264 | 5.0 | 11.0 | 0.00 | 0.00 | 0.00 | 47 | 1020.7 |
| 20260902110211 | 81 | 219 | 1.0 | 4.0 | 0.00 | 0.00 | 0.00 | 46 | 1020.8 |
| 20260902105211 | 80 | 117 | 3.0 | 7.0 | 0.00 | 0.00 | 0.00 | 51 | 1020.9 |
| 20260902104211 | 79 | 215 | 4.0 | 8.0 | 0.00 | 0.00 | 0.00 | 52 | 1021.0 |
| 20260902103212 | 78 | 188 | 4.0 | 7.0 | 0.00 | 0.00 | 0.00 | 54 | 1021.2 |
| 20260902102211 | 77 | 182 | 2.0 | 7.0 | 0.00 | 0.00 | 0.00 | 55 | 1021.3 |
| 20260902101212 | 76 | 140 | 3.0 | 8.0 | 0.00 | 0.00 | 0.00 | 57 | 1021.3 |
| 20260902100211 | 75 | 183 | 3.0 | 10.0 | 0.00 | 0.00 | 0.00 | 59 | 1021.3 |
| 20260902095211 | 74 | 148 | 5.0 | 8.0 | 0.00 | 0.00 | 0.00 | 61 | 1021.2 |
| 20260902094211 | 72 | 242 | 3.0 | 8.0 | 0.00 | 0.00 | 0.00 | 64 | 1021.4 |
| 20260902093211 | 71 | 178 | 2.0 | 6.0 | 0.00 | 0.00 | 0.00 | 68 | 1021.5 |
| 20260902092211 | 69 | 279 | 2.0 | 6.0 | 0.00 | 0.00 | 0.00 | 71 | 1021.5 |
| 20260902091212 | 68 | 209 | 2.0 | 7.0 | 0.00 | 0.00 | 0.00 | 76 | 1021.6 |
| 20260902090211 | 67 | 205 | 4.0 | 7.0 | 0.00 | 0.00 | 0.00 | 81 | 1021.7 |
| 20260902085211 | 65 | 197 | 0.0 | 7.0 | 0.00 | 0.00 | 0.00 | 85 | 1021.6 |
| 20260902084211 | 64 | 150 | 1.0 | 6.0 | 0.00 | 0.00 | 0.00 | 88 | 1021.6 |
| 20260902083211 | 63 | 196 | 0.0 | 0.0 | 0.00 | 0.00 | 0.00 | 89 | 1021.7 |
| 20260902082211 | 62 | 174 | 0.0 | 0.0 | 0.00 | 0.00 | 0.00 | 91 | 1021.7 |
| 20260902081211 | 61 | 225 | 0.0 | 0.0 | 0.00 | 0.00 | 0.00 | 92 | 1021.7 |
| 20260902080211 | 61 | 251 | 0.0 | 0.0 | 0.00 | 0.00 | 0.00 | 92 | 1021.5 |
| 20260902075211 | 60 | 263 | 0.0 | 0.0 | 0.00 | 0.00 | 0.00 | 93 | 1021.5 |
| 20260902074211 | 60 | 236 | 0.0 | 0.0 | 0.00 | 0.00 | 0.00 | 93 | 1021.2 |
| 20260902073211 | 60 | 217 | 0.0 | 0.0 | 0.00 | 0.00 | 0.00 | 93 | 1021.3 |
| 20260902072211 | 59 | 252 | 0.0 | 0.0 | 0.00 | 0.00 | 0.00 | 93 | 1021.2 |
| 20260902071211 | 59 | 225 | 0.0 | 0.0 | 0.00 | 0.00 | 0.00 | 93 | 1021.1 |
| 20260902070211 | 58 | 236 | 0.0 | 0.0 | 0.00 | 0.00 | 0.00 | 93 | 1021.2 |
| 20260902065211 | 58 | 219 | 0.0 | 0.0 | 0.00 | 0.00 | 0.00 | 93 | 1021.0 |
| 20260902064211 | 57 | 211 | 0.0 | 0.0 | 0.00 | 0.00 | 0.00 | 93 | 1021.1 |
| 20260902063211 | 57 | 180 | 0.0 | 0.0 | 0.00 | 0.00 | 0.00 | 93 | 1021.1 |
| 20260902062211 | 56 | 205 | 0.0 | 0.0 | 0.00 | 0.00 | 0.00 | 92 | 1021.1 |
| 20260902061211 | 56 | 194 | 0.0 | 0.0 | 0.00 | 0.00 | 0.00 | 92 | 1021.1 |
| 20260902060211 | 56 | 182 | 0.0 | 0.0 | 0.00 | 0.00 | 0.00 | 92 | 1021.1 |
| 20260902055211 | 55 | 159 | 0.0 | 0.0 | 0.00 | 0.00 | 0.00 | 92 | 1020.9 |
| 20260902054211 | 55 | 200 | 0.0 | 0.0 | 0.00 | 0.00 | 0.00 | 92 | 1021.1 |
| 20260902053211 | 54 | 200 | 0.0 | 0.0 | 0.00 | 0.00 | 0.00 | 91 | 1021.1 |
| 20260902052211 | 54 | 202 | 0.0 | 0.0 | 0.00 | 0.00 | 0.00 | 91 | 1021.1 |
| 20260902051211 | 54 | 198 | 0.0 | 0.0 | 0.00 | 0.00 | 0.00 | 91 | 1020.9 |
| 20260902044211 | 54 | 232 | 0.0 | 0.0 | 0.00 | 0.00 | 0.00 | 91 | 1020.7 |
| 20260902043211 | 54 | 232 | 0.0 | 0.0 | 0.00 | 0.00 | 0.00 | 90 | 1020.8 |
| 20260902042211 | 54 | 232 | 0.0 | 0.0 | 0.00 | 0.00 | 0.00 | 91 | 1020.8 |
| 20260902041211 | 54 | 232 | 0.0 | 0.0 | 0.00 | 0.00 | 0.00 | 90 | 1020.7 |
| 20260902035211 | 55 | 232 | 0.0 | 0.0 | 0.00 | 0.00 | 0.00 | 90 | 1020.7 |
| 20260902034211 | 55 | 232 | 0.0 | 0.0 | 0.00 | 0.00 | 0.00 | 90 | 1020.6 |
| 20260902033211 | 55 | 232 | 0.0 | 0.0 | 0.00 | 0.00 | 0.00 | 90 | 1020.5 |
| 20260902032211 | 55 | 267 | 0.0 | 0.0 | 0.00 | 0.00 | 0.00 | 90 | 1020.5 |
| 20260902031211 | 55 | 267 | 0.0 | 0.0 | 0.00 | 0.00 | 0.00 | 90 | 1020.7 |
| 20260902030211 | 55 | 267 | 0.0 | 0.0 | 0.00 | 0.00 | 0.00 | 90 | 1020.7 |
| 20260902025212 | 55 | 267 | 0.0 | 0.0 | 0.00 | 0.00 | 0.00 | 89 | 1020.8 |
| 20260902024211 | 55 | 267 | 0.0 | 0.0 | 0.00 | 0.00 | 0.00 | 89 | 1020.8 |
| 20260902023211 | 55 | 271 | 0.0 | 0.0 | 0.00 | 0.00 | 0.00 | 89 | 1020.9 |
| 20260902022211 | 56 | 273 | 0.0 | 0.0 | 0.00 | 0.00 | 0.00 | 89 | 1020.8 |
| 20260902020211 | 56 | 273 | 0.0 | 0.0 | 0.00 | 0.00 | 0.00 | 89 | 1020.7 |
| 20260902015212 | 56 | 273 | 0.0 | 0.0 | 0.00 | 0.00 | 0.00 | 89 | 1020.8 |
| 20260902014212 | 56 | 273 | 0.0 | 0.0 | 0.00 | 0.00 | 0.00 | 88 | 1020.7 |
| 20260902013211 | 56 | 273 | 0.0 | 0.0 | 0.00 | 0.00 | 0.00 | 88 | 1020.7 |
| 20260902012211 | 56 | 249 | 0.0 | 0.0 | 0.00 | 0.00 | 0.00 | 88 | 1020.7 |
| 20260902011211 | 57 | 240 | 0.0 | 0.0 | 0.00 | 0.00 | 0.00 | 88 | 1020.8 |
| 20260902010211 | 57 | 151 | 0.0 | 0.0 | 0.00 | 0.00 | 0.00 | 87 | 1020.8 |
| 20260902005210 | 57 | 270 | 0.0 | 0.0 | 0.00 | 0.00 | 0.00 | 87 | 1020.8 |
| 20260902004212 | 57 | 240 | 0.0 | 0.0 | 0.00 | 0.00 | 0.00 | 87 | 1020.8 |
| 20260902003211 | 58 | 240 | 0.0 | 0.0 | 0.00 | 0.00 | 0.00 | 86 | 1020.9 |
| 20260902002211 | 58 | 240 | 0.0 | 0.0 | 0.00 | 0.00 | 0.00 | 86 | 1020.9 |
| 20260902001211 | 58 | 240 | 0.0 | 0.0 | 0.00 | 0.00 | 0.00 | 85 | 1020.9 |
| 20260902000211 | 58 | 240 | 0.0 | 0.0 | 0.00 | 0.00 | 0.00 | 85 | 1021.0 |
| 20260901235211 | 59 | 240 | 0.0 | 0.0 | 0.00 | 0.00 | 0.00 | 84 | 1021.0 |
| 20260901234211 | 59 | 240 | 0.0 | 0.0 | 0.00 | 0.00 | 0.00 | 84 | 1021.1 |
| 20260901233211 | 60 | 240 | 0.0 | 0.0 | 0.00 | 0.00 | 0.00 | 83 | 1021.0 |
| 20260901232211 | 60 | 240 | 0.0 | 0.0 | 0.00 | 0.00 | 0.00 | 82 | 1021.0 |
| 20260901231210 | 60 | 195 | 0.0 | 0.0 | 0.00 | 0.00 | 0.00 | 82 | 1021.0 |
| 20260901230210 | 61 | 195 | 0.0 | 0.0 | 0.00 | 0.00 | 0.00 | 81 | 1021.0 |
| 20260901225211 | 61 | 195 | 0.0 | 0.0 | 0.00 | 0.00 | 0.00 | 80 | 1020.9 |
| 20260901224210 | 62 | 188 | 0.0 | 0.0 | 0.00 | 0.00 | 0.00 | 79 | 1020.9 |
| 20260901223210 | 62 | 82 | 0.0 | 0.0 | 0.00 | 0.00 | 0.00 | 78 | 1020.9 |
| 20260901222211 | 63 | 46 | 0.0 | 0.0 | 0.00 | 0.00 | 0.00 | 78 | 1020.8 |
| 20260901221213 | 64 | 46 | 0.0 | 0.0 | 0.00 | 0.00 | 0.00 | 77 | 1020.7 |
| 20260901220213 | 64 | 46 | 0.0 | 1.0 | 0.00 | 0.00 | 0.00 | 76 | 1020.7 |
| 20260901215213 | 64 | 49 | 1.0 | 3.0 | 0.00 | 0.00 | 0.00 | 76 | 1020.7 |
| 20260901214213 | 64 | 38 | 2.0 | 3.0 | 0.00 | 0.00 | 0.00 | 76 | 1020.7 |
| 20260901213213 | 64 | 33 | 2.0 | 4.0 | 0.00 | 0.00 | 0.00 | 76 | 1020.7 |